UAL2791 KLAX-KSFO

Flight info

Callsign UAL2791
Flight time N/A
Altitude 36000
Route SUMMR2 STOKD SERFR SERFR4
Aircraft A320/M-SDE3FGHIRWY/LB1

Departure

Time 2026-04-23 03:46
Airport Los Angeles International Airport (KLAX)

Arrival

Time N/A
Airport San Francisco International Airport (KSFO)
Time Latitude Longitude Altitude Speed Heading
2026-04-23 03:09 33.94144 -118.40144 126 ft 0 kts 275°
2026-04-23 03:27 33.94143 -118.40133 121 ft 4 kts 272°
2026-04-23 03:28 33.94145 -118.40102 122 ft 4 kts 243°
2026-04-23 03:28 33.94159 -118.40087 122 ft 1 kts 174°
2026-04-23 03:28 33.94160 -118.40087 122 ft 0 kts 174°
2026-04-23 03:33 33.94158 -118.40087 122 ft 1 kts 174°
2026-04-23 03:33 33.94143 -118.40085 121 ft 3 kts 174°
2026-04-23 03:33 33.94112 -118.40081 124 ft 6 kts 173°
2026-04-23 03:33 33.94064 -118.40073 124 ft 8 kts 172°
2026-04-23 03:34 33.94017 -118.40064 123 ft 5 kts 171°
2026-04-23 03:34 33.93975 -118.40059 124 ft 7 kts 174°
2026-04-23 03:34 33.93918 -118.40047 124 ft 9 kts 158°
2026-04-23 03:34 33.93882 -118.39980 121 ft 11 kts 96°
2026-04-23 03:35 33.93891 -118.39885 126 ft 12 kts 82°
2026-04-23 03:35 33.93902 -118.39774 126 ft 14 kts 83°
2026-04-23 03:35 33.93915 -118.39647 124 ft 16 kts 83°
2026-04-23 03:35 33.93929 -118.39507 126 ft 18 kts 83°
2026-04-23 03:36 33.93945 -118.39349 124 ft 20 kts 83°
2026-04-23 03:36 33.93964 -118.39175 123 ft 22 kts 82°
2026-04-23 03:36 33.93982 -118.38985 126 ft 24 kts 84°
2026-04-23 03:36 33.94005 -118.38779 126 ft 26 kts 83°
2026-04-23 03:37 33.94027 -118.38561 123 ft 23 kts 83°
2026-04-23 03:37 33.94043 -118.38388 124 ft 19 kts 83°
2026-04-23 03:37 33.94058 -118.38253 124 ft 14 kts 83°
2026-04-23 03:37 33.94068 -118.38151 126 ft 0 kts 83°
2026-04-23 03:38 33.94069 -118.38140 123 ft 3 kts 83°
2026-04-23 03:38 33.94070 -118.38133 123 ft 0 kts 83°
2026-04-23 03:41 33.94070 -118.38131 124 ft 0 kts 83°
2026-04-23 03:41 33.94070 -118.38130 124 ft 1 kts 83°
2026-04-23 03:42 33.94072 -118.38110 126 ft 4 kts 83°
2026-04-23 03:42 33.94076 -118.38068 126 ft 6 kts 83°
2026-04-23 03:42 33.94073 -118.38028 126 ft 0 kts 109°
2026-04-23 03:44 33.94071 -118.38025 126 ft 1 kts 124°
2026-04-23 03:44 33.94060 -118.38011 123 ft 4 kts 139°
2026-04-23 03:44 33.94028 -118.37999 124 ft 7 kts 173°
2026-04-23 03:44 33.93983 -118.38051 124 ft 13 kts 261°
2026-04-23 03:45 33.93964 -118.38245 124 ft 49 kts 262°
2026-04-23 03:45 33.93895 -118.38918 122 ft 110 kts 263°
2026-04-23 03:45 33.93778 -118.40021 190 ft 149 kts 261°
2026-04-23 03:45 33.93630 -118.41300 614 ft 160 kts 262°
2026-04-23 03:46 33.93490 -118.42656 1266 ft 163 kts 263°
2026-04-23 03:46 33.93357 -118.44009 1956 ft 165 kts 265°
2026-04-23 03:46 33.93219 -118.45469 2325 ft 187 kts 266°
2026-04-23 03:46 33.93072 -118.47113 2610 ft 209 kts 266°
2026-04-23 03:47 33.92924 -118.48932 2997 ft 228 kts 266°
2026-04-23 03:47 33.92764 -118.50907 3494 ft 247 kts 266°
2026-04-23 03:47 33.92591 -118.53027 4188 ft 259 kts 266°
2026-04-23 03:47 33.92407 -118.55205 5068 ft 264 kts 266°
2026-04-23 03:48 33.92224 -118.57417 5967 ft 267 kts 266°
2026-04-23 03:48 33.92038 -118.59650 6895 ft 269 kts 266°
2026-04-23 03:48 33.91853 -118.61892 7796 ft 269 kts 266°
2026-04-23 03:48 33.91773 -118.64141 8721 ft 269 kts 272°
2026-04-23 03:49 33.91771 -118.66358 9653 ft 268 kts 272°
2026-04-23 03:49 33.91765 -118.68617 10378 ft 276 kts 271°
2026-04-23 03:49 33.91758 -118.71025 10638 ft 297 kts 271°
2026-04-23 03:49 33.91749 -118.73545 11218 ft 304 kts 271°
2026-04-23 03:50 33.91736 -118.76107 11809 ft 307 kts 271°
2026-04-23 03:50 33.91722 -118.78677 11973 ft 306 kts 271°
2026-04-23 03:50 33.91708 -118.81240 12012 ft 305 kts 271°
2026-04-23 03:50 33.91697 -118.83795 12035 ft 307 kts 272°
2026-04-23 03:51 33.91741 -118.86386 12694 ft 309 kts 274°
2026-04-23 03:51 33.91822 -118.88974 13503 ft 310 kts 274°
2026-04-23 03:51 33.91913 -118.91571 14240 ft 311 kts 274°
2026-04-23 03:51 33.92003 -118.94179 14912 ft 313 kts 274°
2026-04-23 03:52 33.92088 -118.96801 15567 ft 315 kts 273°
2026-04-23 03:52 33.92193 -118.99442 16205 ft 317 kts 277°
2026-04-23 03:52 33.92676 -119.02031 16828 ft 320 kts 288°
2026-04-23 03:52 33.93646 -119.04416 17457 ft 325 kts 299°
2026-04-23 03:53 33.94856 -119.06729 18100 ft 328 kts 298°
2026-04-23 03:53 33.96066 -119.09062 18696 ft 330 kts 298°
2026-04-23 03:53 33.97285 -119.11425 19267 ft 333 kts 298°
2026-04-23 03:53 33.98509 -119.13800 19857 ft 335 kts 298°
2026-04-23 03:54 33.99738 -119.16193 20458 ft 337 kts 298°
2026-04-23 03:54 34.01163 -119.18463 21041 ft 344 kts 308°
2026-04-23 03:54 34.02994 -119.20373 21610 ft 353 kts 318°
2026-04-23 03:54 34.05007 -119.22084 22183 ft 355 kts 318°
2026-04-23 03:55 34.07029 -119.23810 22747 ft 357 kts 318°
2026-04-23 03:55 34.09061 -119.25553 23317 ft 359 kts 318°
2026-04-23 03:55 34.11104 -119.27308 23833 ft 362 kts 318°
2026-04-23 03:55 34.13159 -119.29076 24293 ft 364 kts 318°
2026-04-23 03:56 34.15226 -119.30860 24719 ft 367 kts 318°
2026-04-23 03:56 34.17312 -119.32662 25144 ft 369 kts 318°
2026-04-23 03:56 34.19410 -119.34470 25574 ft 372 kts 318°
2026-04-23 03:56 34.21521 -119.36292 25973 ft 374 kts 317°
2026-04-23 03:57 34.23647 -119.38129 26377 ft 377 kts 317°
2026-04-23 03:57 34.25789 -119.39980 26777 ft 379 kts 317°
2026-04-23 03:57 34.27942 -119.41842 27159 ft 382 kts 317°
2026-04-23 03:57 34.30108 -119.43716 27531 ft 385 kts 317°
2026-04-23 03:58 34.32295 -119.45608 27897 ft 387 kts 317°
2026-04-23 03:58 34.34491 -119.47512 28276 ft 390 kts 317°
2026-04-23 03:58 34.36676 -119.49406 28647 ft 392 kts 317°
2026-04-23 03:58 34.38901 -119.51333 29005 ft 395 kts 317°
2026-04-23 03:59 34.41102 -119.53327 29366 ft 393 kts 313°
2026-04-23 03:59 34.43059 -119.55616 29731 ft 392 kts 308°
2026-04-23 03:59 34.44981 -119.57980 30098 ft 395 kts 308°
2026-04-23 03:59 34.46910 -119.60359 30410 ft 397 kts 308°
2026-04-23 04:00 34.48846 -119.62749 30741 ft 399 kts 308°
2026-04-23 04:00 34.50797 -119.65153 31098 ft 400 kts 308°
2026-04-23 04:00 34.52755 -119.67564 31414 ft 402 kts 308°
2026-04-23 04:00 34.54716 -119.69979 31754 ft 402 kts 308°
2026-04-23 04:01 34.56680 -119.72399 32214 ft 400 kts 308°
2026-04-23 04:01 34.58628 -119.74801 32703 ft 398 kts 308°
2026-04-23 04:01 34.60563 -119.77194 33203 ft 396 kts 307°
2026-04-23 04:01 34.62489 -119.79570 33652 ft 394 kts 307°
2026-04-23 04:02 34.64408 -119.81936 34165 ft 392 kts 307°
2026-04-23 04:02 34.66318 -119.84293 34598 ft 390 kts 307°
2026-04-23 04:02 34.68217 -119.86642 35029 ft 387 kts 307°
2026-04-23 04:02 34.70097 -119.88976 35440 ft 385 kts 306°
2026-04-23 04:03 34.71948 -119.91275 35831 ft 384 kts 306°
2026-04-23 04:03 34.73839 -119.93623 36103 ft 384 kts 306°
2026-04-23 04:03 34.77546 -119.98228 36163 ft 379 kts 306°
2026-04-23 04:04 34.81227 -120.02805 36159 ft 378 kts 306°